| time (UTC) | temp F | wind direction | speed knots | gust knots | rain 1hr in | rain 24hr in | rain mn in | humidity % | barometer mb |
| 20260506014559 | 50 | 13 | 2.6 | 13.9 | 0.00 | 0.00 | 0.00 | 77 | 1011.0 |
| 20260506013053 | 50 | 15 | 3.5 | 13.9 | 0.00 | 0.00 | 0.00 | 77 | 1010.8 |
| 20260506011554 | 50 | 0 | 2.6 | 18.2 | 0.00 | 0.00 | 0.00 | 77 | 1010.4 |
| 20260505211611 | 53 | 15 | 3.5 | 19.1 | 0.00 | 0.00 | 0.00 | 76 | 1008.8 |
| 20260505210052 | 53 | 13 | 2.6 | 13.0 | 0.00 | 0.00 | 0.00 | 78 | 1008.1 |
| 20260505204551 | 53 | 11 | 3.5 | 15.6 | 0.00 | 0.00 | 0.00 | 78 | 1008.1 |
| 20260505203055 | 53 | 13 | 4.3 | 16.5 | 0.00 | 0.00 | 0.00 | 78 | 1008.5 |
| 20260505201602 | 54 | 11 | 5.2 | 17.4 | 0.00 | 0.00 | 0.00 | 78 | 1008.1 |
| 20260505194555 | 54 | 14 | 5.2 | 18.2 | 0.00 | 0.00 | 0.00 | 79 | 1007.9 |
| 20260505193050 | 54 | 15 | 3.5 | 13.9 | 0.00 | 0.00 | 0.00 | 80 | 1007.9 |
| 20260505191553 | 54 | 10 | 4.3 | 15.6 | 0.00 | 0.00 | 0.00 | 81 | 1007.6 |
| 20260505190054 | 54 | 15 | 2.6 | 15.6 | 0.00 | 0.00 | 0.00 | 81 | 1007.5 |
| 20260505184548 | 54 | 14 | 5.2 | 13.9 | 0.00 | 0.00 | 0.00 | 82 | 1007.3 |
| 20260505183052 | 55 | 12 | 3.5 | 13.9 | 0.00 | 0.00 | 0.00 | 83 | 1007.3 |
| 20260505181552 | 55 | 13 | 5.2 | 16.5 | 0.00 | 0.00 | 0.00 | 83 | 1007.3 |
| 20260505180052 | 55 | 14 | 3.5 | 12.2 | 0.00 | 0.00 | 0.00 | 83 | 1007.3 |
| 20260505174558 | 55 | 14 | 4.3 | 16.5 | 0.00 | 0.00 | 0.00 | 83 | 1006.8 |
| 20260505173056 | 56 | 13 | 4.3 | 15.6 | 0.00 | 0.00 | 0.00 | 84 | 1006.5 |
| 20260505171556 | 56 | 15 | 2.6 | 18.2 | 0.00 | 0.00 | 0.00 | 84 | 1006.4 |
| 20260505170056 | 56 | 16 | 4.3 | 14.8 | 0.00 | 0.00 | 0.00 | 83 | 1006.3 |
| 20260505164607 | 57 | 13 | 4.3 | 16.5 | 0.00 | 0.00 | 0.00 | 83 | 1005.9 |
| 20260505163053 | 58 | 12 | 4.3 | 17.4 | 0.00 | 0.00 | 0.00 | 82 | 1005.6 |
| 20260505161557 | 59 | 13 | 3.5 | 13.0 | 0.00 | 0.00 | 0.00 | 81 | 1005.5 |
| 20260505153053 | 68 | 11 | 3.5 | 14.8 | 0.00 | 0.00 | 0.00 | 78 | 1004.6 |
| 20260505151550 | 70 | 0 | 0.0 | 0.9 | 0.00 | 0.00 | 0.00 | 80 | 1004.2 |
| 20260505140112 | 66 | 24 | 0.9 | 3.5 | 0.00 | 0.00 | 0.00 | 84 | 1003.3 |
| 20260505124558 | 65 | 0 | 0.0 | 3.5 | 0.00 | 0.00 | 0.00 | 82 | 1003.8 |
| 20260505123053 | 65 | 21 | 0.0 | 2.6 | 0.00 | 0.00 | 0.00 | 83 | 1003.7 |
| 20260505121550 | 65 | 22 | 0.0 | 3.5 | 0.00 | 0.00 | 0.00 | 82 | 1003.3 |
| 20260505120058 | 65 | 15 | 0.0 | 2.6 | 0.00 | 0.00 | 0.00 | 82 | 1003.2 |
| 20260505114548 | 65 | 16 | 0.0 | 3.5 | 0.00 | 0.00 | 0.00 | 82 | 1003.2 |
| 20260505113055 | 65 | 16 | 0.9 | 3.5 | 0.00 | 0.00 | 0.00 | 81 | 1003.1 |
| 20260505111553 | 66 | 0 | 0.0 | 2.6 | 0.00 | 0.00 | 0.00 | 81 | 1002.9 |
| 20260505110104 | 66 | 16 | 0.0 | 3.5 | 0.00 | 0.00 | 0.00 | 81 | 1002.7 |
| 20260505101551 | 65 | 0 | 0.0 | 2.6 | 0.00 | 0.00 | 0.00 | 81 | 1002.2 |
| 20260505100052 | 66 | 0 | 0.0 | 2.6 | 0.00 | 0.00 | 0.00 | 81 | 1002.2 |
| 20260505094554 | 66 | 16 | 0.0 | 3.5 | 0.00 | 0.00 | 0.00 | 80 | 1002.1 |
| 20260505093053 | 66 | 23 | 0.0 | 2.6 | 0.00 | 0.00 | 0.00 | 79 | 1002.1 |
| 20260505091604 | 67 | 0 | 0.0 | 1.7 | 0.00 | 0.00 | 0.00 | 80 | 1002.2 |
| 20260505090049 | 67 | 23 | 0.0 | 1.7 | 0.00 | 0.00 | 0.00 | 79 | 1002.2 |
| 20260505084553 | 67 | 0 | 0.0 | 2.6 | 0.00 | 0.00 | 0.00 | 79 | 1002.4 |
| 20260505083053 | 67 | 22 | 0.0 | 2.6 | 0.00 | 0.00 | 0.00 | 78 | 1002.3 |
| 20260505081553 | 67 | 0 | 0.0 | 1.7 | 0.00 | 0.00 | 0.00 | 77 | 1002.6 |
| 20260505080100 | 67 | 0 | 0.0 | 1.7 | 0.00 | 0.00 | 0.00 | 78 | 1002.4 |
| 20260505074549 | 68 | 0 | 0.0 | 0.0 | 0.00 | 0.00 | 0.00 | 76 | 1003.0 |
| 20260505073053 | 68 | 0 | 0.0 | 1.7 | 0.00 | 0.00 | 0.00 | 76 | 1002.9 |
| 20260505071555 | 68 | 0 | 0.0 | 1.7 | 0.00 | 0.00 | 0.00 | 76 | 1003.2 |
| 20260505070053 | 68 | 0 | 0.0 | 2.6 | 0.00 | 0.00 | 0.00 | 77 | 1003.2 |
| 20260505064548 | 67 | 0 | 0.0 | 0.0 | 0.00 | 0.00 | 0.00 | 77 | 1003.4 |
| 20260505063110 | 68 | 0 | 0.0 | 0.0 | 0.00 | 0.00 | 0.00 | 76 | 1003.4 |
| 20260505061552 | 68 | 0 | 0.0 | 4.3 | 0.00 | 0.00 | 0.00 | 74 | 1002.8 |
| 20260505060056 | 68 | 0 | 0.0 | 3.5 | 0.00 | 0.00 | 0.00 | 74 | 1002.5 |
| 20260505054607 | 69 | 24 | 0.9 | 4.3 | 0.00 | 0.00 | 0.00 | 73 | 1002.6 |
| 20260505053056 | 69 | 22 | 0.9 | 7.8 | 0.00 | 0.00 | 0.00 | 73 | 1002.9 |
| 20260505051551 | 69 | 0 | 0.9 | 7.0 | 0.00 | 0.00 | 0.00 | 72 | 1002.9 |
| 20260505041555 | 69 | 24 | 1.7 | 7.0 | 0.00 | 0.00 | 0.00 | 69 | 1002.8 |
| 20260505040056 | 69 | 24 | 2.6 | 9.6 | 0.00 | 0.00 | 0.00 | 70 | 1003.1 |
| 20260505034549 | 69 | 24 | 1.7 | 9.6 | 0.00 | 0.00 | 0.00 | 70 | 1003.0 |
| 20260505033047 | 70 | 23 | 1.7 | 7.8 | 0.00 | 0.00 | 0.00 | 69 | 1003.4 |
| 20260505031600 | 70 | 24 | 0.9 | 5.2 | 0.00 | 0.00 | 0.00 | 66 | 1003.9 |
| 20260505030109 | 70 | 0 | 0.0 | 2.6 | 0.00 | 0.00 | 0.00 | 65 | 1003.8 |
| 20260505024559 | 71 | 0 | 0.0 | 7.0 | 0.00 | 0.00 | 0.00 | 64 | 1004.0 |
| 20260505023051 | 71 | 0 | 0.9 | 7.0 | 0.00 | 0.00 | 0.00 | 64 | 1003.9 |
| 20260505021558 | 72 | 24 | 0.9 | 5.2 | 0.00 | 0.00 | 0.00 | 63 | 1004.0 |
| 20260505020047 | 72 | 23 | 0.9 | 9.6 | 0.00 | 0.00 | 0.00 | 64 | 1004.1 |